Helicity
1 32 49 65 68 65 65 61 47 39 65 82 57 49 26 34 71 106 130 124 118 112 133 145 142 150 149 163 180 154 140 221 210 175 243 201 195 212 237 220 212 202 186
14 40 56 60 64 63 65 67 48 48 44 66 17 53 17 35 11 77 111 140 126 138 152 120 128 136 144 152 140 158 168 225 250 266 227 247 205 239 231 224 194 184 188
23 26 47 59 56 67 61 60 47 32 32 80 27 74 42 86 29 73 73 108 130 115 119 132 119 145 139 126 138 144 175 198 284 278 243 273 249 232 269 252 231 221 203
36 55 50 56 63 54 59 44 35 28 14 52 51 56 65 53 25 68 63 109 122 116 131 142 144 137 133 154 172 171 201 202 233 249 286 286 317 309 305 266 239 219 197
49 43 39 58 61 50 43 30 14 19 10 27 39 71 82 70 61 67 74 112 126 98 117 133 117 89 124 133 179 184 182 198 248 275 297 297 296 290 218 220 203 222 198
48 41 41 69 73 45 31 29 10 8 -1 -1 43 73 65 40 66 46 88 96 72 104 117 116 115 97 92 86 124 152 161 205 235 259 267 247 271 247 225 210 237 199 165
60 55 66 89 61 23 19 24 13 3 -8 0 39 72 64 74 65 58 65 104 104 118 155 151 140 122 125 135 107 143 146 169 174 199 180 174 193 175 205 184 178 187 175
56 58 63 73 47 12 17 18 21 -2 -10 -1 37 80 67 51 72 58 90 123 150 151 130 140 151 162 167 192 288 313 290 236 177 169 174 180 153 145 167 156 155 204 206
60 55 48 59 36 23 28 24 35 7 -9 11 50 93 73 69 73 127 158 183 215 239 210 177 174 199 177 203 263 302 309 330 278 262 254 217 217 185 163 200 192 187 144
59 60 59 67 43 37 43 38 42 7 1 31 47 68 66 90 129 135 161 203 239 256 225 198 174 183 148 226 314 340 354 289 286 340 322 294 268 237 220 156 119 126 115
50 66 60 60 53 47 50 43 41 -4 20 33 50 94 135 137 98 85 102 187 227 235 211 214 178 144 191 210 246 235 208 216 231 256 249 243 226 204 171 128 102 73 74
38 51 27 43 64 50 50 69 22 -7 31 41 78 105 119 105 74 52 80 157 158 239 237 207 181 182 208 186 210 186 182 206 209 209 202 174 153 138 98 88 102 101 98
54 46 20 70 86 60 52 56 -6 18 31 31 48 72 82 82 70 45 54 109 155 229 251 221 206 179 166 180 153 154 164 170 179 169 143 128 93 58 79 86 88 99 113
75 42 69 88 90 62 47 27 -17 42 32 33 53 60 70 81 88 95 115 160 212 227 217 226 201 195 185 162 166 153 172 154 129 117 101 70 69 81 80 70 94 83 93
67 73 93 102 93 72 78 11 9 49 43 55 56 54 51 66 90 132 171 210 242 236 260 243 239 205 184 179 173 153 133 102 97 65 61 66 69 67 71 74 77 85 83
61 69 86 90 82 60 87 4 18 57 43 34 33 61 74 48 64 84 102 136 156 170 181 172 162 143 127 113 110 94 73 50 55 65 71 64 58 56 59 65 78 81 75
64 100 82 64 61 63 61 -8 28 56 54 45 31 48 54 42 50 79 102 124 124 122 157 116 115 100 91 92 75 46 41 56 67 70 67 60 51 39 56 65 59 61 68
116 107 58 52 49 68 43 -12 8 57 63 72 16 31 5 2 57 86 124 129 114 98 106 91 84 65 54 43 37 50 64 63 64 61 63 62 68 61 60 52 54 66 74
88 63 40 29 37 61 25 -21 -1 67 84 75 64 52 46 57 72 95 90 104 87 90 93 86 63 48 43 38 42 56 59 52 51 60 62 63 63 68 66 60 78 91 94
72 55 27 6 15 41 16 -23 4 68 99 90 91 88 83 93 109 121 98 89 86 68 59 60 48 42 38 37 40 45 46 49 45 49 47 49 50 54 55 69 80 81 84
72 46 29 4 7 39 11 -14 12 67 105 123 129 120 115 132 125 101 92 91 76 62 53 54 46 47 46 43 50 49 45 38 34 38 38 39 48 59 62 72 76 83 90
34 25 17 12 21 28 0 6 29 81 120 148 161 146 141 171 130 126 127 113 104 91 71 63 53 45 42 45 49 45 39 36 34 39 37 40 53 67 69 73 80 88 92
19 23 17 9 31 3 0 23 47 95 137 162 198 185 177 173 151 157 150 130 123 121 105 98 94 83 67 57 46 42 39 27 29 41 47 56 62 64 72 79 83 87 94
24 25 24 26 12 1 14 30 63 104 153 188 210 191 197 178 190 191 178 159 152 155 143 127 112 97 77 58 47 50 54 49 48 42 55 57 59 69 78 80 80 84 86
43 37 47 10 4 4 18 46 78 118 170 204 215 202 195 180 166 159 173 170 167 163 148 131 108 83 66 67 63 64 60 72 64 68 73 83 73 83 89 84 74 81 78
74 68 70 14 7 7 35 66 104 143 173 199 192 169 166 145 153 148 150 158 161 144 126 102 80 81 83 77 71 62 74 77 75 83 85 94 90 71 61 51 58 67 63
Wind_Speed
84 86 83 78 78 75 71 72 77 79 73 74 76 77 70 69 65 61 54 52 52 52 50 51 50 48 50 49 48 49 48 46 53 44 41 35 33 30 31 30 26 31 35
83 87 81 74 76 75 71 72 78 81 76 75 76 76 70 67 60 58 53 49 52 52 50 48 50 46 49 46 46 45 45 42 43 43 38 35 37 29 26 28 30 33 37
86 85 80 75 77 79 76 76 80 81 77 75 73 72 67 55 55 52 50 48 47 48 44 47 47 44 44 42 43 42 42 40 40 39 40 35 36 27 28 31 32 36 38
85 82 80 77 82 84 81 78 81 80 78 74 74 72 70 61 59 52 45 46 46 45 43 42 42 44 45 42 41 39 36 35 37 37 37 33 34 31 31 33 38 40 41
82 78 76 76 84 82 80 80 80 79 78 74 73 72 67 58 51 46 46 42 40 40 39 38 37 36 35 34 31 31 30 34 31 33 34 34 34 31 32 35 37 37 39
78 78 76 80 81 80 80 79 79 79 77 73 71 68 64 55 51 48 35 31 28 29 34 33 31 27 25 25 27 25 24 26 28 32 32 30 31 31 31 32 34 38 43
77 75 74 74 80 80 80 79 76 77 75 72 70 64 68 59 50 44 36 32 29 29 29 23 24 24 20 20 20 21 22 25 24 24 21 25 26 27 25 29 33 35 40
74 72 72 74 82 80 79 76 74 74 72 69 67 64 59 61 49 47 38 33 31 25 21 19 18 17 14 10 9 13 17 17 17 17 18 18 23 19 19 28 27 29 31
73 76 79 76 82 78 75 73 72 71 68 64 60 59 57 58 49 27 32 31 26 22 20 16 12 8 2 3 3 4 5 10 11 13 14 15 14 15 17 19 24 26 36
79 79 79 73 79 74 71 69 68 67 64 58 54 51 52 38 22 24 26 20 15 15 17 12 6 2 3 3 8 8 5 6 7 12 15 18 20 22 24 24 21 24 30
82 67 60 70 72 68 67 65 64 60 54 46 40 34 26 22 25 24 18 16 14 13 11 9 9 3 3 3 6 8 12 6 7 11 14 17 20 23 23 25 25 23 26
82 58 46 70 64 62 62 61 59 53 48 41 33 28 27 28 27 21 15 10 8 10 8 11 6 3 7 7 7 12 12 9 8 10 13 16 18 20 22 24 26 28 30
77 47 31 61 58 58 57 57 55 50 45 40 34 28 27 25 21 11 6 8 6 6 8 7 10 8 8 8 13 13 12 10 10 10 12 14 18 19 22 25 27 28 31
65 20 57 56 55 55 53 53 51 47 42 35 26 22 19 17 12 4 7 9 12 11 14 11 8 8 10 15 11 7 7 9 12 12 13 15 19 21 23 26 28 30 34
66 64 57 54 53 52 51 50 47 45 40 33 25 18 12 5 4 6 8 13 12 14 14 9 7 8 8 2 4 6 8 11 12 13 15 15 18 21 24 28 31 33 35
65 60 55 53 52 50 49 47 44 46 42 32 17 13 11 4 14 13 14 20 22 20 12 14 8 5 3 6 8 7 8 11 12 13 13 15 18 22 25 29 33 35 37
59 55 53 53 51 50 47 45 44 40 38 30 9 4 7 8 16 18 23 21 16 10 8 6 5 5 7 6 9 10 11 10 12 13 15 16 19 24 27 30 33 35 39
54 52 52 51 49 49 47 44 44 43 36 38 45 43 54 48 24 28 22 11 8 12 8 7 8 9 12 14 12 12 11 12 13 14 16 19 22 25 28 30 34 37 40
52 51 51 52 50 49 46 44 43 42 40 41 41 39 22 16 26 23 8 9 8 8 6 6 10 13 14 14 13 11 13 13 13 16 18 21 24 26 29 31 36 38 41
52 52 52 51 51 49 46 44 43 43 42 42 41 34 22 15 10 9 10 8 7 6 7 11 12 13 15 15 15 14 12 13 15 18 20 23 25 26 28 31 34 38 42
54 53 52 51 50 49 46 44 43 42 43 39 34 29 19 19 12 7 6 6 6 8 10 12 12 12 12 12 12 12 14 16 17 19 21 23 25 27 30 32 35 39 43
55 55 53 51 49 47 46 42 41 39 35 31 27 25 20 18 13 7 4 4 3 4 5 10 11 12 12 12 13 14 16 17 18 20 22 24 26 28 31 33 36 40 43
54 55 52 50 47 45 42 39 37 36 30 25 24 21 20 17 14 9 6 5 4 3 4 7 9 10 11 12 15 17 16 17 18 20 22 25 27 29 32 34 37 40 42
54 53 50 46 43 41 38 35 32 30 28 25 24 22 19 17 13 9 8 5 2 0 2 5 8 12 13 15 15 16 18 19 20 21 24 26 28 30 31 34 36 39 42
51 50 45 42 40 37 34 30 26 25 29 27 24 22 19 13 10 9 7 4 2 1 3 5 10 14 14 14 14 16 18 20 22 22 25 27 29 30 32 34 35 39 41
48 46 41 38 35 33 29 24 21 19 23 25 23 20 18 13 9 7 6 4 2 1 3 7 11 12 12 14 15 16 18 21 23 24 26 27 29 31 31 33 35 38 41
Wind_Direction
325 323 322 322 323 324 325 325 320 313 305 295 290 283 276 275 273 272 269 265 263 263 264 263 265 267 269 270 269 272 273 277 278 286 286 284 283 276 280 286 291 298 306
326 324 324 325 324 322 322 321 316 310 303 293 286 280 275 274 274 272 269 264 262 263 263 265 265 266 266 269 272 273 273 275 279 277 283 286 287 283 283 287 293 301 307
325 325 325 324 323 319 316 314 311 308 302 292 285 279 278 276 276 274 269 264 263 263 263 262 265 266 265 268 274 276 275 276 276 276 277 287 291 285 289 295 296 303 310
325 324 323 323 318 311 309 308 304 302 300 290 279 276 274 275 275 275 271 263 263 264 262 263 266 264 266 269 273 274 275 279 276 274 280 282 286 287 290 291 296 303 307
325 325 324 322 315 310 307 304 298 298 296 288 278 273 273 270 275 274 272 264 262 264 264 264 267 268 269 270 272 271 274 277 277 276 276 281 284 281 283 294 298 301 307
327 325 323 319 312 308 302 300 294 293 291 289 277 271 268 271 270 271 272 269 265 260 265 266 270 274 276 271 275 274 272 277 274 277 279 280 284 284 290 293 298 299 303
329 328 324 320 310 301 296 292 289 289 289 285 271 267 265 269 273 272 267 265 270 267 264 262 270 275 275 283 283 285 287 285 281 285 281 286 287 290 291 295 298 306 308
331 330 326 320 302 292 290 287 287 288 285 281 267 267 267 262 269 265 263 267 264 262 268 270 267 275 282 286 298 304 299 300 302 303 303 308 307 303 304 302 307 317 325
331 324 318 319 297 286 285 283 285 284 282 276 270 262 263 263 268 266 264 266 262 260 264 270 264 274 305 123 64 34 355 339 353 2 350 345 346 338 329 326 317 318 315
326 323 317 319 293 281 279 278 283 280 278 278 268 272 268 276 274 269 267 257 243 249 257 268 276 258 114 108 98 108 85 331 359 6 353 338 336 342 338 334 332 323 328
320 330 331 318 283 276 275 277 280 277 277 276 276 287 294 285 275 270 260 244 229 235 243 256 250 138 97 83 75 90 95 51 10 7 355 347 347 352 350 346 346 346 341
317 335 338 285 274 272 271 274 277 272 266 274 281 292 289 284 278 269 258 236 206 217 233 238 204 169 98 92 77 91 82 55 26 8 353 349 355 349 350 352 350 347 340
319 341 283 275 270 271 270 275 275 265 264 272 278 287 285 285 279 269 215 150 176 203 216 169 126 111 98 88 92 88 69 50 36 18 5 353 351 7 0 347 342 341 344
329 347 274 271 271 271 271 276 271 258 262 272 280 284 291 279 268 215 129 126 125 132 124 116 107 94 89 90 72 28 17 33 45 42 30 24 12 359 352 336 340 341 347
322 296 277 271 270 268 270 275 262 253 259 266 278 292 287 274 243 133 144 140 143 130 120 113 102 95 92 46 7 25 30 35 41 43 42 23 4 358 343 339 343 349 348
288 287 278 273 271 266 271 273 257 247 251 264 293 293 276 76 106 119 121 119 115 115 110 111 129 196 178 93 77 55 28 42 41 39 24 13 0 348 348 349 350 352 353
286 277 276 273 268 264 270 267 253 252 249 256 299 329 235 139 114 115 114 113 116 131 132 168 144 124 101 84 74 65 55 31 35 26 22 6 352 347 353 353 355 358 356
281 274 275 273 265 263 266 261 250 243 243 233 215 210 194 196 113 113 114 123 196 224 211 148 119 102 92 86 76 66 53 42 30 25 11 357 351 354 355 357 357 358 359
285 278 277 272 265 262 265 259 249 240 235 223 217 213 211 123 115 113 120 217 197 186 172 119 96 93 88 81 70 57 53 41 26 24 8 0 2 3 1 1 357 0 360
287 279 279 274 267 263 263 259 248 239 231 225 220 217 211 146 174 220 228 209 182 153 122 102 94 88 85 81 75 64 44 22 24 17 12 5 3 6 6 5 4 2 359
287 284 282 276 268 261 261 259 249 241 231 227 225 223 204 215 207 204 199 201 135 114 106 99 93 84 77 70 61 55 42 40 34 24 16 12 12 9 7 6 4 0 357
288 289 286 276 267 262 261 260 251 243 236 227 222 217 207 215 215 203 193 168 165 116 98 94 87 80 74 68 65 60 55 46 33 20 13 10 7 7 4 3 1 359 358
291 291 287 279 264 261 263 261 253 244 235 224 214 211 210 212 219 221 200 205 192 120 80 78 76 67 52 52 61 61 51 36 27 22 12 5 1 1 1 1 1 360 360
297 296 286 278 262 262 263 262 257 244 231 218 212 211 201 209 215 213 215 209 163 161 42 59 60 69 64 59 48 35 27 26 23 19 13 6 2 2 3 3 2 2 0
301 298 288 278 264 265 265 265 258 242 227 216 210 207 200 202 205 209 204 208 202 131 46 45 57 67 58 49 38 29 25 19 15 16 11 7 6 6 5 4 3 2 360
305 302 290 279 269 269 268 266 255 238 220 213 206 202 203 201 203 192 202 186 167 54 45 45 58 47 36 25 24 23 18 14 11 13 14 10 9 9 11 8 4 1 359